This is the latest recevied weather packets stored in our database for station/object NC4J. If no packets are shown the sender has not sent any weather packets the latest 10 day(s).
| Time | Temp. | Humidity | Pressure | Rain* | Wind** | Luminosity | Snow |
|---|---|---|---|---|---|---|---|
| 1777902653 | 11.67° C | 61% | 1019.1 hPa | 0 mm | - | 70 W/m² | - |
| 1777902350 | 11.11° C | 63% | 1019.1 hPa | 0 mm | - | 41 W/m² | - |
| 1777902047 | 10.56° C | 67% | 1019.1 hPa | 0 mm | - | 32 W/m² | - |
| 1777901746 | 10.56° C | 68% | 1019.1 hPa | 0 mm | - | 33 W/m² | - |
| 1777901443 | 10° C | 67% | 1019.1 hPa | 0 mm | - | 67 W/m² | - |
| 1777901140 | 9.44° C | 69% | 1019.1 hPa | 0 mm | - | 34 W/m² | - |
| 1777900838 | 9.44° C | 71% | 1019 hPa | 0 mm | - | 32 W/m² | - |
| 1777900535 | 8.89° C | 72% | 1019 hPa | 0 mm | - | 32 W/m² | - |
| 1777900232 | 8.89° C | 74% | 1019 hPa | 0 mm | - | 31 W/m² | - |
| 1777899928 | 8.89° C | 76% | 1018.8 hPa | 0 mm | - | 33 W/m² | - |
| 1777899625 | 8.33° C | 78% | 1018.8 hPa | 0 mm | - | 29 W/m² | - |
| 1777899322 | 7.78° C | 79% | 1018.8 hPa | 0 mm | - | 31 W/m² | - |
| 1777899020 | 7.78° C | 82% | 1018.8 hPa | 0 mm | - | 30 W/m² | - |
| 1777898716 | 7.22° C | 81% | 1018.7 hPa | 0 mm | - | 31 W/m² | - |
| 1777898414 | 7.22° C | 83% | 1018.7 hPa | 0 mm | - | 53 W/m² | - |
| 1777898112 | 6.67° C | 86% | 1018.6 hPa | 0 mm | - | 47 W/m² | - |
| 1777897809 | 6.11° C | 87% | 1018.6 hPa | 0 mm | - | 50 W/m² | - |
| 1777897504 | 5.56° C | 87% | 1018.5 hPa | 0 mm | - | 43 W/m² | - |
| 1777897200 | 5.56° C | 89% | 1018.6 hPa | 0 mm | - | 38 W/m² | - |
| 1777896896 | 5° C | 91% | 1018.7 hPa | 0 mm | - | 38 W/m² | - |
| 1777896594 | 4.44° C | 92% | 1018.7 hPa | 0 mm | - | 50 W/m² | - |
| 1777896290 | 3.89° C | 93% | 1018.8 hPa | 0 mm | - | 27 W/m² | - |
| 1777895989 | 3.89° C | 95% | 1018.7 hPa | 0 mm | - | 24 W/m² | - |
| 1777895686 | 3.33° C | 96% | 1018.7 hPa | 0 mm | - | 28 W/m² | - |
| 1777895383 | 2.78° C | 97% | 1018.7 hPa | 0 mm | - | 22 W/m² | - |
* Rain latest hour (hover to see other rain measurements)
** Current wind speed in m/s (hover to see current wind gust speed)